User: anonymous   Login
Location: NJAA Observatory
(40.6819°N, 74.8979°W)
Time: 09:29:56
(UTC-04:00)
Language:

Meteor 1-28 Rocket - Orbit

View from above orbital plane
View from above orbital plane
View from above satellite
View from above satellite

Ground track
Ground track

The orbit data is extracted from the following two-line orbital elements,

1 10114U 77057B   16149.53157833  .00000566  00000-0  32470-4 0  9996
2 10114  97.2044 345.2982 0013061 218.1048 141.9263 15.16251444125257
Epoch (UTC): 28 May 2016 12:45:28
Eccentricity: 0.0013061
inclination: 97.2044°
perigee height: 508 km
apogee height: 526 km
right ascension of ascending node: 345.2982°
argument of perigee: 218.1048°
revolutions per day: 15.16251444
mean anomaly at epoch: 141.9263°
orbit number at epoch: 12525

The dashed part of the orbit path shows where the satellite is in the earth's shadow,  

DLR